Regional Weather Roundup
Issued by NWS

Home | Current Version | Previous Version | Text Only | Print | Product List | Glossary Off
Versions: 1 2 3 4 5 6 7 8 9 10 11 12 13 14 15 16 17 18 19 20 21 22 23 24 25 26 27 28 29 30 31 32 33 34 35 36 37 38 39 40 41 42 43 44 45 46 47 48 49 50

000
ASUS43 KMPX 201201
RWRMN
WEATHER ROUNDUP FOR MINNESOTA
NATIONAL WEATHER SERVICE TWIN CITIES/CHANHASSEN MN
700 AM CDT MON OCT 20 2014


NOTE: "FAIR" INDICATES FEW OR NO CLOUDS BELOW 12,000 FEET WITH NO
SIGNIFICANT WEATHER AND/OR OBSTRUCTIONS TO VISIBILITY. N/A MEANS
CURRENT SKY AND/OR WEATHER CONDITIONS ARE NOT AVAILABLE.

MNZ060>063-068>070-201300-
   Twin Cities Metro

CITY           SKY/WX    TMP DP  RH WIND       PRES   REMARKS
TWIN CITIES    CLEAR     48  41  76 NW5       29.95R
6HR MIN TEMP:  46; 6HR MAX TEMP:  53;

ST PAUL        CLEAR     43  41  93 CALM      29.96R
CRYSTAL        CLEAR     47  41  80 NW6       29.94R
BLAINE         CLEAR     46  43  87 NW5       29.95R
LAKEVILLE      CLEAR     43  39  87 W5        29.95S
EDEN PRAIRIE   CLEAR     48  42  80 NW7       29.95R
6HR MIN TEMP:  46; 6HR MAX TEMP:  55;

SOUTH ST PAUL  CLEAR     43  40  90 CALM      29.95R
LAKE ELMO      FAIR      43  41  93 CALM      29.95R
$$
MNZ001>005-007-008-013>017-022>024-027-028-201300-
   Northwest Minnesota

CITY           SKY/WX    TMP DP  RH WIND       PRES   REMARKS
BEMIDJI        CLEAR     35  34  98 NW7       29.99R WCI  29
HALLOCK        CLEAR     34  32  93 N3        30.03S
ROSEAU         PTCLDY    37  34  87 NW5       30.01S
WARROAD        CLOUDY    39  36  87 NW7       30.01R
THIEF RVR FALL CLEAR     39  36  87 N7        30.02S
CROOKSTON      CLEAR     34  34 100 N5        30.04R WCI  30
FOSSTON        CLEAR     34  32  93 CALM      30.02R FOG
DETROIT LAKES  CLEAR     39  36  87 CALM      30.02R
MOORHEAD       CLEAR     37  37 100 NW3       30.04R
PARK RAPIDS    CLEAR     35  33  92 NW7       29.99R WCI  29
MAHNOMEN       FAIR      34  33  97 CALM      30.01R
$$
MNZ006-009>011-018-025>026-201300-
   North Central Minnesota

CITY           SKY/WX    TMP DP  RH WIND       PRES   REMARKS
BAUDETTE       CLOUDY    41  39  93 VRB5      29.98R
FLAG ISLAND    CLOUDY    43  39  87 NW14      29.99R
INTL FALLS     CLOUDY    42  40  92 NW6       29.95R
6HR MIN TEMP:  30; 6HR MAX TEMP:  42;

WASKISH        CLOUDY    43  39  87 NW3       29.98R
BIG FORK       MOCLDY    41  37  87 CALM      29.96R
LONGVILLE      FOG       36  36 100 CALM      29.96R VSB 1
GRAND RAPIDS   CLEAR     43  37  81 NW7       29.94R
CRANE LAKE     CLOUDY    46  43  87 N5        29.93R
ORR            CLOUDY    43  39  87 NW5       29.90R
COOK           CLOUDY    41  39  93 NW3       29.92S
WALKER         FAIR      37  37  97 NW3       29.98R
$$
MNZ012-019>021-037-201300-
   Northeast Minnesota

CITY           SKY/WX    TMP DP  RH WIND       PRES   REMARKS
DULUTH         PTCLDY    43  39  86 NW7       29.91R
6HR MIN TEMP:  43; 6HR MAX TEMP:  50;

ELY            CLOUDY    45  39  81 NW3       29.90R
HIBBING        CLEAR     36  33  89 CALM      29.92R FOG
EVELETH        CLOUDY    43  41  93 CALM      29.91S
DULUTH HARBOR  CLEAR     48  45  87 NW14      29.92R
TWO HARBORS    CLOUDY    46  34  61 W3        29.88R
SILVER BAY     CLEAR     46  39  76 CALM      29.87R
GRAND MARAIS     N/A     49  42  77 CALM      29.86R
G MARAIS ARPRT CLOUDY    43  37  81 NW8       29.86R
$$
MNZ029>031-032-039>041-046>048-054>057-064-201300-
   West Central Minnesota

CITY           SKY/WX    TMP DP  RH WIND       PRES   REMARKS
FERGUS FALLS   CLEAR     41  36  81 N5        30.03R
WHEATON        CLEAR     37  34  87 W3        30.06R
MORRIS         CLEAR     36  34  93 NW7       30.01S
ALEXANDRIA     CLEAR     42  38  85 NW7       30.01R
ELBOW LAKE     FAIR      36  34  90 NW6       30.01R
WADENA         CLEAR     41  37  87 NW6       29.99R
GLENWOOD       CLEAR     43  37  81 NW5       30.00R
APPLETON       CLEAR     36  34  93 CALM      30.02R
BENSON         CLEAR     36  36 100 N7        30.02R
ORTONVILLE     CLEAR     45  37  76 NW6       30.03R
MADISON        CLEAR     45  37  76 W5        30.03R
WILLMAR        FAIR      39  36  87 NW5       30.01R
$$
MNZ033>034-036-042>043-049>051-058-059-201300-
   Central Minnesota

CITY           SKY/WX    TMP DP  RH WIND       PRES   REMARKS
ST CLOUD       CLEAR     45  39  79 NW6       29.96R
6HR MIN TEMP:  44; 6HR MAX TEMP:  51;

SAUK CENTRE    FAIR      38  37  94 W3        29.99R
PAYNESVILLE    CLEAR     37  36  96 SW6       29.99R
AITKIN         CLEAR     36  30  80 CALM      29.94R HAZE
PINE RIVER     CLEAR     34  34 100 CALM      30.00R
BRAINERD       CLEAR     40  38  93 CALM      29.97R
STAPLES        CLEAR     37  36  93 NW3       29.98S
LONG PRAIRIE   FAIR      41  37  87 CALM      30.00R
LITTLE FALLS   CLEAR     36  34  93 CALM      29.98R FOG
LITCHFIELD     CLEAR     46  43  87 NW7       29.98S
BUFFALO        CLEAR     41  38  89 CALM      29.97S
MAPLE LAKE     CLEAR     44  41  90 W5        29.97S
$$
MNZ037-044-045-052-053-201300-
   East Central Minnesota

CITY           SKY/WX    TMP DP  RH WIND       PRES   REMARKS
PRINCETON      CLEAR     43  39  87 W6        29.95S
MORA           CLEAR     37  36  93 NW3       29.96R
CAMBRIDGE      CLEAR     45  36  70 CALM      29.93S
RUSH CITY      PTCLDY    41  38  90 CALM      29.94R
MOOSE LAKE     CLEAR     43  37  81 NW5       29.92R
HINCKLEY       FAIR      39  37  93 NW3       29.93S
CLOQUET        CLEAR     41  37  87 W5        29.92R
MCGREGOR       CLEAR     41  39  93 CALM      29.94S
$$
MNZ071>073-080-081-089-090-097-098-201300-
   Southwest Minnesota

CITY           SKY/WX    TMP DP  RH WIND       PRES   REMARKS
MONTEVIDEO     CLEAR     41  37  87 NW7       30.03R
GRANITE FALLS  CLEAR     37  35  90 W6        30.03R
CANBY          CLEAR     44  38  80 W7        30.05R
MARSHALL       CLEAR     43  34  70 NW10      30.02R
REDWOOD FALLS  CLEAR     41  37  86 W8        30.00R
OLIVIA         CLEAR     39  36  87 NW7       29.99R
PIPESTONE      CLEAR     43  37  81 N7        30.04R
WINDOM         CLEAR     37  36  93 W8        30.02R
WORTHINGTON    CLEAR     41  36  81 W8        30.04R
JACKSON        CLEAR     39  36  87 W5        30.01R
TRACY          CLEAR     46  38  74 W6        30.03R
SLAYTON        FAIR      44  38  80 W8        30.04R
$$
MNZ065>067-074>077-082>085-091>093-201300-
   South Central Minnesota

CITY           SKY/WX    TMP DP  RH WIND       PRES   REMARKS
MANKATO        CLEAR     45  36  70 W8        29.98R
NEW ULM        CLEAR     39  37  93 W8        29.99S
ST JAMES       CLEAR     43  37  81 W5        30.01R
FAIRMONT       CLEAR     45  36  70 NW8       30.00R
GLENCOE        CLEAR     47  42  81 W10       29.96S
FARIBAULT      CLEAR     37  36  93 CALM      29.97R
OWATONNA       CLEAR     37  36  93 CALM      29.97R
WASECA         CLEAR     37  34  87 CALM      29.98S
ALBERT LEA     CLEAR     43  39  87 W3        29.97R
$$
MNZ078>079-086>088-094>096-201300-
   Southeast Minnesota

CITY           SKY/WX    TMP DP  RH WIND       PRES   REMARKS
ROCHESTER      CLEAR     41  38  89 W7        29.96R
6HR MIN TEMP:  41; 6HR MAX TEMP:  51;

RED WING       CLEAR     43  39  87 W5        29.93R
STANTON        CLEAR     42  38  86 CALM      29.95R
DODGE CENTER   PTCLDY    45  41  87 W8        29.95S
WINONA         CLEAR     43  41  93 CALM      29.93R
AUSTIN         CLEAR     43  39  87 NW5       29.96R
PRESTON        CLEAR     42  39  89 NW7       29.94S
$$
ABBREVIATIONS USED IN REMARKS
   TC - TEMPERATURES IN CELSIUS
  WCI - WIND CHILL INDEX
   HX - HEAT INDEX
  VSB - VISIBILITY
$$


USA.gov is the U.S. government's official web portal to all federal, state and local government web resources and services.